Regional Weather Roundup
Issued by NWS Raleigh/Durham, NC

Home | Current Version | Previous Version | Text Only | Print | Product List | Glossary On
Versions: 1 2 3 4 5 6 7 8 9 10 11 12 13 14 15 16 17 18 19 20 21 22 23 24 25 26 27 28 29 30 31 32 33 34 35 36 37 38 39 40 41 42 43 44 45 46 47 48 49 50
109
ASUS42 KRAH 221310
RWRRAH
NORTH CAROLINA WEATHER ROUNDUP
NATIONAL WEATHER SERVICE RALEIGH NC
900 AM EDT TUE AUG 22 2017

NOTE: "FAIR" INDICATES FEW OR NO CLOUDS BELOW 12,000 FEET WITH NO
SIGNIFICANT WEATHER AND/OR OBSTRUCTIONS TO VISIBILITY.

NCZ001-053-055-056-065-067-221400-
WESTERN NORTH CAROLINA

CITY           SKY/WX    TMP DP  RH WIND       PRES   REMARKS
ASHEVILLE      CLOUDY    69  68  96 N5        30.21S FOG
JEFFERSON      SUNNY     68  65  92 CALM      30.24S
MORGANTON      CLOUDY    69  69 100 CALM      30.18F FOG
HICKORY        PTSUNNY   72  72 100 CALM      30.14S
RUTHERFORDTON  SUNNY     73  73  99 CALM      30.15S
MOUNT AIRY     SUNNY     74  69  86 CALM      30.17S HAZE
BOONE          SUNNY     69  67  94 CALM      30.25S
$$

NCZ021-022-025-041-071-084-088-221400-
CENTRAL NORTH CAROLINA

CITY           SKY/WX    TMP DP  RH WIND       PRES   REMARKS
CHARLOTTE      MOSUNNY   78  75  90 S5        30.13S
GREENSBORO     MOSUNNY   77  74  90 SW6       30.13F
WINSTON-SALEM  SUNNY     77  72  84 CALM      30.14F
RALEIGH-DURHAM MOSUNNY   80  75  84 SW6       30.13S
FORT BRAGG     CLOUDY    78  76  95 CALM      30.11S
FAYETTEVILLE   MOSUNNY   79  77  94 CALM      30.11F
BURLINGTON     SUNNY     77  73  87 SW6       30.12F
LAURINBURG     CLOUDY    77  77 100 S3        30.12F FOG
$$

NCZ011-015-027-028-043-044-047-080-103-221400-
NORTHEASTERN NORTH CAROLINA

CITY           SKY/WX    TMP DP  RH WIND       PRES   REMARKS
ROCKY MT-WILSO CLOUDY    76  76 100 SW3       30.12S FOG
GREENVILLE     CLOUDY    77  77 100 CALM      30.13S
WASHINGTON     MOSUNNY   80  76  90 CALM      30.12F
ELIZABETH CITY SUNNY     81  78  91 SW7       30.11F
MANTEO         SUNNY     80  76  87 CALM      30.13S
CAPE HATTERAS  SUNNY     83  77  82 S5        30.12F
$$

NCZ078-087-090-091-093-098-101-221400-
SOUTHEASTERN NORTH CAROLINA

CITY           SKY/WX    TMP DP  RH WIND       PRES   REMARKS
LUMBERTON      CLOUDY    77  77 100 CALM      30.11S
GOLDSBORO      PTSUNNY   77  77 100 SW2       30.11S FOG
KINSTON        MOSUNNY   77  77 100 CALM      30.13S
KENANSVILLE    MOSUNNY   77  77 100 CALM      30.12S
NEW BERN       SUNNY     82  78  88 CALM      30.13S
CHERRY POINT   MOSUNNY   83  77  82 CALM      30.12F
BEAUFORT       PTSUNNY   83  78  85 SE3       30.11F
JACKSONVILLE   MOSUNNY   82  78  88 SE3       30.11S
WILMINGTON     MOSUNNY   83  77  82 CALM      30.11S
$$





USA.gov is the U.S. government's official web portal to all federal, state and local government web resources and services.